SCP
0 0 0 0 0 0 0 0 0 0 0 0 0 0 0 0 0 0 0 0 0 0
0 0 0 0 0 0 0 0 0 0 0 0 0 0 0 0 0 0 0 0 0 0
0 0 0 0 0 0 0 0 0 0 0 0 0 0 0 0 0 0 0 0 0 0
0 0 0 0 0 0 0 0 0 0 0 0 0 0 0 0 0 0 0 0 0 0
0 0 0 0 0 0 0 0 0 0 0 0 0 0 0 0 0 0 0 0 0 0
0 0 0 0 0 0 0 0 0 0 0 0 0 0 0 0 0 0 0 0 0 0
0 0 0 0 0 0 0 0 0 0 0 0 0 0 0 0 0 0 0 0 0 0
0 0 0 0 0 0 0 0 0 0 0 0 0 0 0 0 0 0 0 0 0 0
0 0 0 0 0 0 0 0 0 0 0 0 0 0 0 0 0 0 0 0 0 0
0 0 0 0 0 0 0 0 0 0 0 0 0 0 0 0 0 0 0 0 0 0
0 0 0 0 0 0 0 0 0 0 0 0 0 0 0 0 0 0 0 0 0 0
0 0 0 0 0 0 0 0 0 0 0 0 0 0 0 0 0 0 0 0 0 0
0 0 0 0 0 0 0 0 0 0 0 0 0 0 0 0 0 0 0 0 0 0
0 0 0 0 0 0 0 0 0 0 0 0 0 0 0 0 0 0 0 0 0 0
Wind_Speed_500mb
24 22 21 15 9 10 13 16 19 21 24 27 31 33 32 29 27 27 25 20 19 15
25 20 16 16 13 9 8 9 11 18 25 30 35 37 35 31 28 26 26 25 22 23
19 17 21 17 14 13 6 5 13 20 28 35 37 35 33 34 32 30 31 33 31 30
21 24 22 18 13 6 4 10 16 25 32 39 32 32 34 34 36 32 32 35 34 30
24 13 13 12 9 10 12 18 23 31 39 39 35 34 34 37 37 36 36 36 37 38
20 13 10 11 14 17 21 25 30 34 41 42 43 41 39 35 35 36 38 43 49 51
25 19 17 19 19 23 27 31 36 41 44 45 44 44 40 34 35 43 49 53 56 55
34 29 26 28 26 27 32 37 41 46 49 50 48 48 43 41 44 46 53 60 49 36
48 38 33 33 28 32 35 38 45 53 55 55 56 55 47 41 41 44 50 55 46 28
42 35 29 29 30 34 35 42 50 55 57 60 61 57 47 42 47 54 47 43 33 33
44 37 32 29 27 28 35 44 48 53 59 63 59 57 52 51 50 49 37 30 31 32
31 30 25 24 29 34 39 44 50 53 54 58 60 50 35 34 33 34 36 30 31 32
23 22 24 31 35 38 40 42 43 46 43 39 36 32 30 33 30 32 33 32 31 37
18 24 28 30 31 33 34 37 44 43 33 28 29 32 33 32 40 36 37 41 42 41
Wind_Direction_500mb
154 152 145 133 111 100 84 61 47 30 16 3 352 342 335 331 330 317 309 308 306 311
147 151 153 138 131 117 101 71 27 3 354 348 341 334 329 330 327 318 307 303 305 311
163 166 158 160 162 155 149 0 346 343 342 338 333 326 324 321 318 313 302 303 304 297
192 167 163 172 177 206 288 316 324 334 337 334 331 324 321 317 314 317 312 303 304 303
189 195 206 207 224 261 293 309 320 330 335 333 329 326 322 315 313 314 313 310 306 306
208 210 231 260 268 285 302 305 313 323 331 329 326 325 322 317 312 309 306 304 305 305
218 229 256 264 280 297 295 300 308 318 326 325 323 321 315 306 299 299 302 304 308 309
217 221 236 253 271 287 292 298 306 314 318 320 320 320 310 299 296 298 301 306 315 310
207 216 228 245 264 282 289 297 305 308 312 313 314 316 308 300 298 296 301 309 315 310
203 209 221 235 254 271 284 295 299 301 304 307 311 313 303 297 296 299 304 305 314 309
197 207 221 231 249 270 286 293 294 298 300 302 304 306 299 297 294 296 309 314 317 309
185 211 224 251 273 287 294 294 296 296 297 300 302 304 309 315 311 306 305 302 307 304
216 253 272 285 296 300 301 304 305 304 303 297 311 308 315 310 304 305 302 300 298 305
280 286 293 303 309 314 315 321 324 321 321 315 309 306 304 300 300 299 299 296 299 303
Wind_Speed_850mb
24 22 21 15 9 10 13 16 19 21 24 27 31 33 32 29 27 27 25 20 19 15
25 20 16 16 13 9 8 9 11 18 25 30 35 37 35 31 28 26 26 25 22 23
19 17 21 17 14 13 6 5 13 20 28 35 37 35 33 34 32 30 31 33 31 30
21 24 22 18 13 6 4 10 16 25 32 39 32 32 34 34 36 32 32 35 34 30
24 13 13 12 9 10 12 18 23 31 39 39 35 34 34 37 37 36 36 36 37 38
20 13 10 11 14 17 21 25 30 34 41 42 43 41 39 35 35 36 38 43 49 51
25 19 17 19 19 23 27 31 36 41 44 45 44 44 40 34 35 43 49 53 56 55
34 29 26 28 26 27 32 37 41 46 49 50 48 48 43 41 44 46 53 60 49 36
48 38 33 33 28 32 35 38 45 53 55 55 56 55 47 41 41 44 50 55 46 28
42 35 29 29 30 34 35 42 50 55 57 60 61 57 47 42 47 54 47 43 33 33
44 37 32 29 27 28 35 44 48 53 59 63 59 57 52 51 50 49 37 30 31 32
31 30 25 24 29 34 39 44 50 53 54 58 60 50 35 34 33 34 36 30 31 32
23 22 24 31 35 38 40 42 43 46 43 39 36 32 30 33 30 32 33 32 31 37
18 24 28 30 31 33 34 37 44 43 33 28 29 32 33 32 40 36 37 41 42 41
Wind_Direction_850mb
154 152 145 133 111 100 84 61 47 30 16 3 352 342 335 331 330 317 309 308 306 311
147 151 153 138 131 117 101 71 27 3 354 348 341 334 329 330 327 318 307 303 305 311
163 166 158 160 162 155 149 0 346 343 342 338 333 326 324 321 318 313 302 303 304 297
192 167 163 172 177 206 288 316 324 334 337 334 331 324 321 317 314 317 312 303 304 303
189 195 206 207 224 261 293 309 320 330 335 333 329 326 322 315 313 314 313 310 306 306
208 210 231 260 268 285 302 305 313 323 331 329 326 325 322 317 312 309 306 304 305 305
218 229 256 264 280 297 295 300 308 318 326 325 323 321 315 306 299 299 302 304 308 309
217 221 236 253 271 287 292 298 306 314 318 320 320 320 310 299 296 298 301 306 315 310
207 216 228 245 264 282 289 297 305 308 312 313 314 316 308 300 298 296 301 309 315 310
203 209 221 235 254 271 284 295 299 301 304 307 311 313 303 297 296 299 304 305 314 309
197 207 221 231 249 270 286 293 294 298 300 302 304 306 299 297 294 296 309 314 317 309
185 211 224 251 273 287 294 294 296 296 297 300 302 304 309 315 311 306 305 302 307 304
216 253 272 285 296 300 301 304 305 304 303 297 311 308 315 310 304 305 302 300 298 305
280 286 293 303 309 314 315 321 324 321 321 315 309 306 304 300 300 299 299 296 299 303